EW0435 Weather Reports


Display with metric or nautical units.
time (UTC)temp
F
wind
direction
speed
MPH
gust
MPH
rain 1hr
in
rain 24hr
in
rain mn
in
humidity
%
barometer
mb
20260903060004 53 339 0.0 0.0 0.00 0.07 0.07 81 1014.5
20260903055505 53 331 0.0 0.0 0.00 0.07 0.07 81 1014.5
20260903055004 53 346 0.0 0.0 0.00 0.07 0.07 81 1014.6
20260903054504 53 338 0.0 0.0 0.00 0.07 0.07 81 1014.6
20260903054004 53 346 0.0 0.0 0.00 0.07 0.07 81 1014.7
20260903053504 53 338 0.0 0.0 0.00 0.07 0.07 81 1014.7
20260903053004 53 329 0.0 0.0 0.00 0.07 0.07 80 1014.8
20260903052504 53 328 0.0 0.0 0.00 0.07 0.07 80 1014.8
20260903052004 53 321 0.0 1.0 0.00 0.07 0.07 80 1014.9
20260903051504 53 324 0.0 0.0 0.00 0.07 0.07 80 1014.9
20260903051004 53 359 0.0 0.0 0.00 0.07 0.07 80 1014.8
20260903050004 54 321 0.0 1.0 0.00 0.07 0.07 79 1014.8
20260903045004 54 318 0.0 3.0 0.00 0.07 0.07 79 1014.7
20260903044504 54 311 1.0 3.0 0.00 0.07 0.07 78 1014.6
20260903044004 54 308 1.0 5.0 0.00 0.07 0.07 78 1014.6
20260903043504 54 318 1.0 5.0 0.00 0.07 0.07 78 1014.6
20260903043004 54 313 1.0 5.0 0.00 0.07 0.07 78 1014.7
20260903042504 54 320 0.0 3.0 0.00 0.07 0.07 78 1014.7
20260903042004 54 317 1.0 3.0 0.00 0.07 0.07 78 1014.7
20260903041504 54 307 1.0 3.0 0.00 0.07 0.07 77 1014.7
20260903041004 55 316 0.0 3.0 0.00 0.07 0.07 77 1014.7
20260903040504 55 309 1.0 3.0 0.00 0.07 0.07 76 1014.6
20260903040004 55 312 1.0 3.0 0.00 0.07 0.07 76 1014.6
20260903035504 55 305 1.0 3.0 0.00 0.07 0.07 76 1014.5
20260903035005 56 309 2.0 8.0 0.00 0.07 0.07 75 1014.5
20260903034504 56 308 1.0 6.0 0.00 0.07 0.07 75 1014.4
20260903034004 56 304 2.0 8.0 0.00 0.07 0.07 74 1014.4
20260903033504 57 310 2.0 8.0 0.00 0.07 0.07 73 1014.4
20260903032005 58 304 1.0 7.0 0.00 0.07 0.07 69 1014.1
20260903031504 59 301 1.0 3.0 0.00 0.07 0.07 67 1014.0
20260903031004 59 309 0.0 2.0 0.00 0.07 0.07 67 1013.8
20260903030505 59 313 0.0 2.0 0.00 0.07 0.07 67 1013.8
20260903030004 59 311 0.0 3.0 0.00 0.07 0.07 66 1013.8
20260903025503 59 308 1.0 3.0 0.00 0.07 0.07 67 1013.7
20260903025003 59 317 0.0 3.0 0.00 0.07 0.07 67 1013.7
20260903024504 59 312 0.0 3.0 0.00 0.07 0.07 67 1013.8
20260903023504 60 313 2.0 6.0 0.00 0.07 0.07 66 1013.8
20260903023004 60 308 1.0 3.0 0.00 0.07 0.07 67 1013.8
20260903022504 60 316 0.0 3.0 0.00 0.07 0.07 66 1013.7
20260903022004 61 320 0.0 2.0 0.00 0.07 0.07 69 1013.7
20260903021004 62 2 0.0 0.0 0.00 0.07 0.07 67 1013.5
20260903020504 62 65 0.0 0.0 0.00 0.07 0.07 67 1013.4
20260903020004 62 65 0.0 0.0 0.00 0.07 0.07 66 1013.4
20260903015004 63 70 0.0 0.0 0.00 0.07 0.07 65 1013.5
20260903014504 63 72 0.0 0.0 0.00 0.07 0.07 65 1013.4
20260903014003 63 71 0.0 0.0 0.00 0.07 0.07 65 1013.5
20260903013503 63 71 0.0 0.0 0.00 0.07 0.07 65 1013.4
20260903013004 63 71 0.0 0.0 0.00 0.07 0.07 64 1013.4
20260903012004 63 71 0.0 0.0 0.00 0.07 0.07 64 1013.3
20260903011504 63 71 0.0 0.0 0.00 0.07 0.07 64 1013.3
20260903011004 63 71 0.0 0.0 0.00 0.07 0.07 64 1013.3
20260903010504 63 72 0.0 0.0 0.00 0.07 0.07 64 1013.3
20260903010004 64 73 0.0 0.0 0.00 0.07 0.07 63 1013.3
20260903005504 63 73 0.0 0.0 0.00 0.07 0.07 64 1013.3
20260903005004 63 10 0.0 0.0 0.00 0.07 0.07 64 1013.2
20260903004504 63 84 0.0 0.0 0.00 0.07 0.07 63 1013.3
20260903004004 64 80 0.0 0.0 0.00 0.07 0.07 63 1013.3
20260903003504 63 76 0.0 0.0 0.00 0.07 0.07 63 1013.4
20260903003004 64 58 0.0 0.0 0.00 0.07 0.07 63 1013.3
20260903002504 64 59 0.0 0.0 0.00 0.07 0.07 62 1013.4
20260903002004 64 55 0.0 0.0 0.00 0.07 0.07 62 1013.5
20260903001504 64 56 0.0 0.0 0.00 0.07 0.07 61 1013.5
20260903001003 64 55 0.0 1.0 0.00 0.07 0.07 60 1013.4
20260903000004 64 52 0.0 0.0 0.00 0.07 0.07 61 1013.5
20260902235504 64 79 0.0 0.0 0.00 0.07 0.07 62 1013.5
20260902235004 63 64 0.0 2.0 0.00 0.07 0.07 62 1013.4
20260902234504 64 69 0.0 2.0 0.00 0.07 0.07 62 1013.4
20260902234004 64 87 0.0 1.0 0.00 0.07 0.07 63 1013.4
20260902233504 64 70 0.0 1.0 0.00 0.07 0.07 62 1013.5
20260902233004 64 71 0.0 1.0 0.00 0.07 0.07 62 1013.5
20260902232504 64 61 0.0 1.0 0.00 0.07 0.07 62 1013.5
20260902232004 64 63 0.0 2.0 0.00 0.07 0.07 61 1013.5
20260902231004 64 82 0.0 3.0 0.00 0.07 0.07 62 1013.5
20260902230504 64 64 0.0 2.0 0.00 0.07 0.07 61 1013.5
20260902230004 65 92 0.0 1.0 0.00 0.07 0.07 62 1013.5
20260902225504 64 99 0.0 3.0 0.00 0.07 0.07 60 1013.4
20260902225004 64 93 0.0 2.0 0.00 0.07 0.07 64 1013.5
20260902224504 64 94 1.0 2.0 0.00 0.07 0.07 64 1013.5
20260902224004 63 97 0.0 3.0 0.00 0.07 0.07 64 1013.6
20260902223504 63 120 0.0 3.0 0.00 0.07 0.07 62 1013.6
20260902223004 63 97 0.0 3.0 0.00 0.07 0.07 62 1013.7
20260902222504 63 92 0.0 3.0 0.00 0.07 0.07 63 1013.7
20260902222004 63 86 1.0 2.0 0.00 0.07 0.07 66 1013.6
20260902221503 63 76 0.0 2.0 0.00 0.07 0.07 67 1013.7
20260902221003 62 90 0.0 3.0 0.00 0.07 0.07 65 1013.7
20260902220504 63 76 1.0 3.0 0.00 0.07 0.07 66 1013.8
20260902220003 63 68 1.0 2.0 0.00 0.07 0.07 65 1013.9
20260902215004 62 122 0.0 1.0 0.00 0.07 0.07 65 1014.0
20260902214504 62 104 1.0 3.0 0.00 0.07 0.07 66 1014.0
20260902214004 62 105 0.0 3.0 0.00 0.07 0.07 65 1014.1
20260902213503 62 99 0.0 1.0 0.00 0.07 0.07 67 1014.1
20260902213004 61 116 0.0 2.0 0.00 0.07 0.07 66 1014.3
20260902212503 61 95 0.0 2.0 0.00 0.07 0.07 66 1014.4
20260902211004 61 93 0.0 3.0 0.00 0.07 0.07 67 1014.5
20260902210004 61 77 1.0 6.0 0.00 0.07 0.07 66 1014.6
20260902205504 61 117 0.0 2.0 0.00 0.07 0.07 68 1014.6
20260902205004 61 95 1.0 3.0 0.00 0.07 0.07 67 1014.6
20260902204503 60 91 1.0 3.0 0.00 0.07 0.07 70 1014.7
20260902204004 60 93 0.0 3.0 0.00 0.07 0.07 69 1014.7
20260902203004 60 94 1.0 3.0 0.00 0.07 0.07 69 1014.9
20260902202504 60 72 1.0 5.0 0.00 0.07 0.07 70 1015.0
20260902202004 60 90 1.0 3.0 0.00 0.07 0.07 71 1015.0
20260902201504 59 69 1.0 3.0 0.00 0.07 0.07 73 1015.0
20260902201003 59 113 1.0 3.0 0.00 0.07 0.07 71 1015.1
20260902200503 58 98 0.0 3.0 0.00 0.07 0.07 74 1015.2
20260902200004 58 84 0.0 3.0 0.00 0.07 0.07 74 1015.2
20260902195504 58 125 0.0 1.0 0.00 0.07 0.07 74 1015.3
20260902195004 57 141 0.0 2.0 0.00 0.07 0.07 75 1015.4
20260902194004 57 95 1.0 2.0 0.00 0.07 0.07 78 1015.6
20260902193504 57 129 0.0 2.0 0.00 0.07 0.07 77 1015.6
20260902193003 56 101 0.0 3.0 0.00 0.07 0.07 83 1015.7
20260902192504 55 97 0.0 2.0 0.00 0.07 0.07 80 1015.7
20260902192004 55 91 0.0 2.0 0.00 0.07 0.07 83 1015.8
20260902191504 55 125 0.0 2.0 0.00 0.07 0.07 86 1015.9
20260902191004 54 134 0.0 2.0 0.00 0.07 0.07 85 1015.9
20260902190504 54 117 0.0 3.0 0.00 0.07 0.07 88 1015.9
20260902190004 54 107 0.0 3.0 0.00 0.07 0.07 89 1016.0
20260902185504 53 139 0.0 2.0 0.00 0.07 0.07 88 1016.0
20260902185004 53 146 0.0 2.0 0.00 0.07 0.07 90 1016.1
20260902184504 53 135 0.0 2.0 0.00 0.07 0.07 90 1016.0
20260902184004 52 137 0.0 1.0 0.00 0.07 0.07 91 1016.0
20260902183504 52 138 0.0 1.0 0.00 0.07 0.07 91 1016.0
20260902183004 52 168 0.0 1.0 0.00 0.07 0.07 92 1016.0
20260902182504 52 165 0.0 2.0 0.00 0.07 0.07 91 1016.0
20260902182004 52 159 0.0 1.0 0.00 0.07 0.07 92 1016.0
20260902181504 51 163 0.0 1.0 0.00 0.07 0.07 91 1015.9
20260902181004 52 173 0.0 0.0 0.00 0.07 0.07 92 1015.9
20260902180503 51 142 0.0 0.0 0.00 0.07 0.07 93 1015.9
20260902180006 51 143 0.0 1.0 0.00 0.07 0.07 92 1015.9
20260902175004 51 134 0.0 0.0 0.00 0.07 0.07 92 1016.0
20260902174503 50 117 0.0 0.0 0.00 0.07 0.07 92 1016.0
20260902174003 50 123 0.0 1.0 0.01 0.07 0.07 92 1015.9
20260902173504 50 127 0.0 2.0 0.01 0.07 0.07 92 1016.0
20260902173004 50 134 0.0 2.0 0.01 0.07 0.07 92 1016.0
20260902172004 50 140 0.0 3.0 0.02 0.07 0.07 92 1016.0
20260902171503 49 147 0.0 2.0 0.02 0.07 0.07 92 1016.0
20260902171004 49 123 0.0 2.0 0.03 0.07 0.07 92 1015.6
20260902170504 49 107 0.0 3.0 0.03 0.07 0.07 92 1015.4
20260902165503 49 128 2.0 3.0 0.04 0.07 0.07 91 1015.3
20260902165004 49 124 2.0 6.0 0.05 0.07 0.07 90 1015.1
20260902164504 49 114 3.0 6.0 0.05 0.07 0.07 90 1015.0
20260902164004 49 106 3.0 7.0 0.04 0.06 0.06 90 1015.2
20260902163503 50 109 2.0 6.0 0.04 0.06 0.06 89 1015.7
20260902163004 50 135 1.0 5.0 0.04 0.06 0.06 89 1015.8
20260902162004 51 93 0.0 2.0 0.04 0.05 0.05 90 1015.6
20260902161503 51 128 0.0 1.0 0.04 0.05 0.05 90 1015.7
20260902161004 51 88 1.0 6.0 0.03 0.04 0.04 89 1015.6
20260902160504 51 120 2.0 6.0 0.03 0.04 0.04 88 1015.9
20260902160007 52 126 1.0 3.0 0.03 0.03 0.03 87 1016.1
20260902155004 53 140 0.0 0.0 0.02 0.02 0.02 84 1016.2
20260902154503 54 232 0.0 0.0 0.02 0.02 0.02 83 1016.0
20260902153004 54 226 0.0 3.0 0.02 0.02 0.02 81 1015.7
20260902152504 54 229 0.0 2.0 0.02 0.02 0.02 81 1015.6
20260902152004 54 231 0.0 2.0 0.01 0.01 0.01 81 1015.5
20260902151504 54 226 0.0 2.0 0.01 0.01 0.01 80 1015.4
20260902151004 55 233 0.0 2.0 0.01 0.01 0.01 79 1015.4
20260902150504 55 239 0.0 2.0 0.01 0.01 0.01 78 1015.4
20260902150004 55 246 0.0 2.0 0.00 0.00 0.00 77 1015.5
20260902145505 55 230 0.0 2.0 0.00 0.00 0.00 76 1015.5
20260902145003 55 224 0.0 1.0 0.00 0.00 0.00 75 1015.5
20260902144504 55 246 0.0 1.0 0.00 0.00 0.00 73 1015.3
20260902144004 55 263 0.0 2.0 0.00 0.00 0.00 73 1015.3
20260902143504 55 307 0.0 2.0 0.00 0.00 0.00 73 1015.3
20260902142004 55 311 0.0 1.0 0.00 0.00 0.00 71 1015.0
20260902141004 55 308 0.0 0.0 0.00 0.00 0.00 70 1014.7
20260902135504 54 289 0.0 1.0 0.00 0.00 0.00 68 1014.9
20260902135004 54 238 0.0 0.0 0.00 0.00 0.00 67 1015.0
20260902134504 54 302 0.0 1.0 0.00 0.00 0.00 67 1014.8
20260902134004 53 136 0.0 2.0 0.00 0.00 0.00 68 1014.8
20260902133504 53 134 0.0 2.0 0.00 0.00 0.00 69 1014.7
20260902133004 53 78 0.0 0.0 0.00 0.00 0.00 70 1014.1
20260902132504 53 12 0.0 2.0 0.00 0.00 0.00 70 1013.4
20260902132003 53 320 1.0 3.0 0.00 0.00 0.00 70 1013.2
20260902131504 52 312 3.0 5.0 0.00 0.00 0.00 71 1013.1
20260902131003 53 317 2.0 5.0 0.00 0.00 0.00 71 1013.3
20260902130504 53 314 1.0 5.0 0.00 0.00 0.00 71 1013.7
20260902130004 53 318 0.0 1.0 0.00 0.00 0.00 71 1013.7
20260902125503 53 319 0.0 0.0 0.00 0.00 0.00 72 1013.8
20260902125004 53 321 0.0 1.0 0.00 0.00 0.00 72 1013.9
20260902124504 53 319 0.0 0.0 0.00 0.00 0.00 73 1013.9
20260902124004 53 322 0.0 0.0 0.00 0.00 0.00 75 1013.7
20260902123504 53 328 0.0 1.0 0.00 0.00 0.00 76 1013.7
20260902123004 53 319 0.0 0.0 0.00 0.00 0.00 77 1013.7
20260902122503 53 317 0.0 0.0 0.00 0.00 0.00 77 1013.6
20260902122004 53 317 0.0 1.0 0.00 0.00 0.00 77 1013.5
20260902121004 53 314 0.0 0.0 0.00 0.00 0.00 77 1013.5
20260902120504 53 318 0.0 1.0 0.00 0.00 0.00 77 1013.4
20260902120004 53 313 0.0 1.0 0.00 0.00 0.00 78 1013.5
20260902115504 53 314 0.0 1.0 0.00 0.00 0.00 78 1013.5
20260902115004 53 318 0.0 1.0 0.00 0.00 0.00 78 1013.5
20260902114504 53 310 0.0 1.0 0.00 0.00 0.00 78 1013.5
20260902113504 53 294 0.0 0.0 0.00 0.00 0.00 80 1013.5
20260902113004 53 305 0.0 0.0 0.00 0.00 0.00 80 1013.4
20260902112004 53 315 0.0 1.0 0.00 0.00 0.00 80 1013.3
20260902111504 53 319 0.0 1.0 0.00 0.00 0.00 81 1013.3
20260902111004 53 305 0.0 1.0 0.00 0.00 0.00 81 1013.3
20260902110504 53 311 0.0 1.0 0.00 0.00 0.00 80 1013.3
20260902110007 53 320 0.0 0.0 0.00 0.00 0.00 79 1013.3
20260902105504 53 316 0.0 0.0 0.00 0.00 0.00 80 1013.4
20260902105003 53 318 0.0 1.0 0.00 0.00 0.00 80 1013.3
20260902104504 52 310 0.0 1.0 0.00 0.00 0.00 80 1013.2
20260902104004 52 316 0.0 1.0 0.00 0.00 0.00 80 1013.1
20260902103004 52 317 0.0 1.0 0.00 0.00 0.00 79 1013.1
20260902102504 52 310 0.0 1.0 0.00 0.00 0.00 78 1013.1
20260902102004 53 304 0.0 1.0 0.00 0.00 0.00 78 1013.2
20260902101504 53 302 0.0 0.0 0.00 0.00 0.00 77 1013.2
20260902101005 53 318 0.0 1.0 0.00 0.00 0.00 77 1013.1
20260902100504 53 308 0.0 1.0 0.00 0.00 0.00 76 1013.2
20260902095504 54 309 0.0 1.0 0.00 0.00 0.00 75 1013.1
20260902095004 54 314 0.0 3.0 0.00 0.00 0.00 75 1013.2
20260902094504 54 310 0.0 1.0 0.00 0.00 0.00 73 1013.1
20260902094004 54 313 0.0 1.0 0.00 0.00 0.00 73 1013.1
20260902093504 54 319 0.0 0.0 0.00 0.00 0.00 72 1013.1
20260902093004 55 311 0.0 0.0 0.00 0.00 0.00 71 1013.2
20260902092503 55 307 0.0 0.0 0.00 0.00 0.00 69 1013.2
20260902092004 56 290 0.0 0.0 0.00 0.00 0.00 68 1013.2
20260902091503 57 287 0.0 0.0 0.00 0.00 0.00 68 1013.2
20260902090504 57 282 0.0 0.0 0.00 0.00 0.00 66 1013.2
20260902085503 58 281 0.0 0.0 0.00 0.00 0.00 66 1013.3
20260902084504 58 281 0.0 0.0 0.00 0.00 0.00 66 1013.4
20260902084004 58 281 0.0 0.0 0.00 0.00 0.00 66 1013.4
20260902083504 58 281 0.0 0.0 0.00 0.00 0.00 67 1013.4
20260902082504 58 281 0.0 0.0 0.00 0.00 0.00 67 1013.5
20260902082004 58 281 0.0 0.0 0.00 0.00 0.00 67 1013.7
20260902080504 58 281 0.0 0.0 0.00 0.00 0.00 68 1013.7
20260902080005 58 294 0.0 0.0 0.00 0.00 0.00 70 1013.6
20260902075004 58 294 0.0 0.0 0.00 0.00 0.00 70 1013.6
20260902074503 58 294 0.0 0.0 0.00 0.00 0.00 70 1013.7
20260902074004 58 294 0.0 0.0 0.00 0.00 0.00 71 1013.7
20260902073504 58 294 0.0 0.0 0.00 0.00 0.00 71 1013.6
20260902073004 58 294 0.0 0.0 0.00 0.00 0.00 72 1013.5
20260902072504 57 294 0.0 0.0 0.00 0.00 0.00 73 1013.4
20260902072004 57 294 0.0 0.0 0.00 0.00 0.00 71 1013.5
20260902071504 57 293 0.0 0.0 0.00 0.00 0.00 71 1013.6
20260902071004 57 293 0.0 0.0 0.00 0.00 0.00 72 1013.6
20260902070504 58 293 0.0 0.0 0.00 0.00 0.00 70 1013.6
20260902070004 58 157 0.0 0.0 0.00 0.00 0.00 70 1013.5
20260902065504 58 157 0.0 0.0 0.00 0.00 0.00 71 1013.6
20260902065003 58 157 0.0 0.0 0.00 0.00 0.00 70 1013.6
20260902064504 58 157 0.0 0.0 0.00 0.00 0.00 71 1013.6
20260902064004 57 157 0.0 0.0 0.00 0.00 0.00 71 1013.5
20260902063504 57 157 0.0 0.0 0.00 0.00 0.00 71 1013.6
20260902063004 57 157 0.0 0.0 0.00 0.00 0.00 70 1013.7
20260902062504 58 157 0.0 0.0 0.00 0.00 0.00 69 1013.7
20260902062004 58 157 0.0 0.0 0.00 0.00 0.00 70 1013.6
20260902061504 58 157 0.0 0.0 0.00 0.00 0.00 69 1013.7
20260902061004 58 158 0.0 0.0 0.00 0.00 0.00 69 1013.6